{"data":{"norad_id":60991,"epoch":"2026-09-21T16:52:18.919200Z","epoch_age_seconds":84921,"freshness":"FRESH","line1":"1 60991U 24158B   26264.70299675 -.00000906  00000+0 -26173-5 0  9990","line2":"2 60991  53.1587  34.7784 0001216  92.2407 267.8751 15.69704955118381","mean_motion":15.69704955,"eccentricity":0.0001216,"inclination_deg":53.1587,"raan_deg":34.7784,"arg_perigee_deg":92.2407,"mean_anomaly_deg":267.8751,"bstar":-2.6173e-6,"rev_number":11838,"period_min":91.736985056532,"perigee_km":358.92186132975,"apogee_km":360.5605133049,"semimajor_km":6737.8781873173,"source":"CELESTRAK","updated_at":"2026-09-22T09:00:49.293975Z"}}